Volver al catálogo

FENGYUN 1C DEB

ActivoSSO
NORAD 31022·DEBRIS·🇨🇳 China

Lanzado May 10, 1999 desde Taiyuan Satellite Launch Center

Loading…

Próximos Pases (próximas 24 horas)

TLE

ActualizadoSource: Space-Track

Época: Sep 14, 2026, 12:27 UTC

1 31022U 99025BDQ 26257.51912204  .00000337  00000-0  29175-3 0  9999
2 31022  99.4858 152.3447 0110398 103.2958 258.0539 13.90715758658411

Sigue FENGYUN 1C DEB en tiempo real con AllMySat

Download on the App Store